Regional Weather Roundup
Issued by NWS Jackson, KY

Home | Current Version | Previous Version | Text Only | Print | Product List | Glossary On
Versions: 1 2 3 4 5 6 7 8 9 10 11 12 13 14 15 16 17 18 19 20 21 22 23 24 25 26 27 28 29 30 31 32 33 34 35 36 37 38 39 40 41 42 43 44 45 46 47 48 49 50
000
ASUS43 KJKL 231710
RWRJKL

EAST KENTUCKY HOURLY WEATHER ROUNDUP
NATIONAL WEATHER SERVICE JACKSON KY
100 PM EDT SUN JUL 23 2017

NOTE: "FAIR" INDICATES FEW OR NO CLOUDS BELOW 12,000 FEET WITH
NO SIGNIFICANT WEATHER AND/OR OBSTRUCTIONS TO VISIBILITY.

* THESE REPORTS ARE NOT UNDER NWS QUALITY CONTROL AND MAY NOT
  REPORT WEATHER SUCH AS PRECIPITATION AND FOG.

KYZ079-080-083-085-087-088-110-112-115-119-120-231800
...EASTERN KENTUCKY...

CITY           SKY/WX    TMP DP  RH WIND       PRES   REMARKS
JACKSON        CLOUDY    76  65  68 VRB7      29.95S
LONDON         PTSUNNY   82  64  54 W8        29.95F
SOMERSET*      CLOUDY    81  63  54 CALM      29.94F
MONTICELLO*    CLOUDY    77  68  73 N12       29.95F
WILLIAMSBURG*  PTSUNNY   82  72  69 N6        29.94F
MIDDLESBORO*   CLOUDY    88  71  57 NW6       29.94S HX  93
HARLAN APT*    MOSUNNY   82  64  54 W10G17    29.97R
PIKE CO APT*     N/A     80  73  79 W10       29.96S
BIG SANDY APT* CLOUDY    80  70  70 W6        29.95S
MOREHEAD APT*  PTSUNNY   73  66  78 CALM      29.91F
ASHLAND*         N/A    N/A N/A N/A MISG        N/A
$$

KYZ035-036-041-042-044-050-067-078-099-231800
...CENTRAL KENTUCKY...

CITY           SKY/WX    TMP DP  RH WIND       PRES   REMARKS
MT STERLING*   CLOUDY    73  68  83 SW8       29.90F
FLEMING/MASON* LGT RAIN  73  67  83 W9        29.89F
DANVILLE*      CLOUDY    75  68  78 NW7       29.94R
LEXINGTON      CLOUDY    76  70  82 W6        29.88F
FRANKFORT      CLOUDY    76  69  79 SW3       29.85F
LOUISVILLE     CLOUDY    79  71  76 SW12      29.88R
LEBANON*         N/A     75  70  83 S8        29.91F
GLASGOW*       CLOUDY    81  68  65 CALM      29.91F
BOWLING GREEN  PTSUNNY   84  71  65 E7        29.90F
$$

KYZ091>093-OHZ055-061-077-WVZ005-015-034-035-042-231800
...SOUTHERN OHIO/WEST VIRGINIA...

CITY           SKY/WX    TMP DP  RH WIND       PRES   REMARKS
COVINGTON      CLOUDY    73  72  96 SE3       29.79F
COLUMBUS       CLOUDY    77  75  93 SW8       29.84S
DAYTON         LGT RAIN  74  69  85 S5        29.85F
WILMINGTON     LGT RAIN  72  71  97 NW12      29.84F
HUNTINGTON     CLOUDY    79  69  71 SW9       29.91S
CHARLESTON     CLOUDY    79  68  69 SW6       29.92R
PINEVILLE*     CLOUDY    79  70  73 MISG      30.02R
BECKLEY        MOSUNNY   78  65  63 W10       30.01R
BLUEFIELD      MOSUNNY   79  64  60 W13G24    30.02S
LOGAN CO APT*    N/A     79  70  73 CALM      29.96S
$$

VAZ002-007-008-TNZ017-027-036-066-071-231800
...SOUTHWEST VIRGINIA/EAST TENNESSEE...

CITY           SKY/WX    TMP DP  RH WIND       PRES   REMARKS
WISE*          MOSUNNY   82  61  47 W13G18    30.03F
JONESVILLE*      N/A     86  72  62 W6        29.97F HX  92
ABINGDON*      MOSUNNY   87  70  57 W8        29.99S HX  92
BRISTOL        PTSUNNY   85  72  65 S9        29.96F HX  91
MORRISTOWN*    MOSUNNY   86  73  66 W8        29.93F HX  93
SEVIERVILLE*   SUNNY     90  72  55 W7        29.92F HX  96
KNOXVILLE      CLOUDY    84  71  65 W8        29.93F
LAFOLLETTE*    PTSUNNY   88  73  62 CALM      29.96F HX  96
OAK RIDGE      PTSUNNY   88  73  61 VRB3      29.94F HX  95
CROSSVILLE     CLOUDY    83  73  72 VRB6      29.99F
NASHVILLE      PTSUNNY   91  74  57 VRB5      29.90F HX 100
$$

...KEY TO REMARKS...
VSB - VISIBILITY IN MILES
WCI - WIND CHILL INDEX
HX  - HEAT INDEX

$$



USA.gov is the U.S. government's official web portal to all federal, state and local government web resources and services.